This is the latest recevied weather packets stored in our database for station/object KO4APQ. If no packets are shown the sender has not sent any weather packets the latest 10 day(s).
| Time | Temp. | Humidity | Pressure | Rain* | Wind** | Luminosity | Snow |
|---|---|---|---|---|---|---|---|
| 1778084588 | 21.11° C | 74% | 1015.4 hPa | 0 mm | - | 164 W/m² | - |
| 1778084285 | 21.11° C | 73% | 1016.9 hPa | 0 mm | - | 130 W/m² | - |
| 1778083982 | 21.67° C | 71% | 1016.7 hPa | 0 mm | - | 249 W/m² | - |
| 1778083680 | 21.67° C | 70% | 1016.9 hPa | 0 mm | - | 134 W/m² | - |
| 1778083376 | 21.11° C | 71% | 1016.6 hPa | 0 mm | - | 390 W/m² | - |
| 1778083075 | 21.11° C | 72% | 1016.6 hPa | 0 mm | - | 261 W/m² | - |
| 1778082772 | 21.11° C | 72% | 1016.1 hPa | 0 mm | - | 264 W/m² | - |
| 1778081644 | 20.56° C | 72% | 1015.9 hPa | 0 mm | - | 395 W/m² | - |
| 1778081341 | 20.56° C | 72% | 1015.7 hPa | 0 mm | - | 397 W/m² | - |
| 1778081038 | 20.56° C | 72% | 1016.1 hPa | 0 mm | - | 287 W/m² | - |
| 1778080737 | 20.56° C | 72% | 1016.1 hPa | 0 mm | - | 219 W/m² | - |
| 1778080433 | 20.56° C | 73% | 1016.1 hPa | 0 mm | - | 205 W/m² | - |
| 1778080131 | 20.56° C | 71% | 1015.7 hPa | 0 mm | - | 181 W/m² | - |
| 1778079827 | 20.56° C | 71% | 1016.2 hPa | 0 mm | - | 265 W/m² | - |
| 1778079524 | 20.56° C | 71% | 1015.9 hPa | 0 mm | - | 341 W/m² | - |
| 1778079220 | 20.56° C | 71% | 1015.6 hPa | 0 mm | - | 285 W/m² | - |
| 1778078918 | 20° C | 71% | 1015.9 hPa | 0 mm | - | 281 W/m² | - |
| 1778078614 | 20° C | 70% | 1015.7 hPa | 0 mm | - | 265 W/m² | - |
| 1778078313 | 20° C | 71% | 1015.7 hPa | 0 mm | - | 276 W/m² | - |
| 1778078009 | 20° C | 72% | 1015.6 hPa | 0 mm | - | 283 W/m² | - |
| 1778077708 | 20° C | 71% | 1015.5 hPa | 0 mm | - | 255 W/m² | - |
| 1778077405 | 20° C | 71% | 1015.4 hPa | 0 mm | - | 210 W/m² | - |
| 1778077104 | 20° C | 71% | 1015.3 hPa | 0 mm | - | 244 W/m² | - |
| 1778076801 | 20° C | 70% | 1015.2 hPa | 0 mm | - | 244 W/m² | - |
| 1778076499 | 20° C | 71% | 1015.2 hPa | 0 mm | - | 243 W/m² | - |
* Rain latest hour (hover to see other rain measurements)
** Current wind speed in m/s (hover to see current wind gust speed)